Pula, Croatia

2:44 AM CEST on May 26, 2017 (GMT +0200)
Pula

Weather History for LDPL - November, 2012

Change the Weather History Date:

Wednesday, November 14, 2012

  Actual Average Record
Temperature  
Mean Temperature 52 °F -  
Max Temperature 58 °F - - ()
Min Temperature 46 °F - - ()
Degree Days  
Heating Degree Days 13    
Growing Degree Days 2 (Base 50)    
Moisture  
Dew Point 42 °F    
Average Humidity 65    
Maximum Humidity 76    
Minimum Humidity 45    
Precipitation  
Precipitation 0.00 in - - ()
Sea Level Pressure  
Sea Level Pressure 30.29 in    
Wind  
Wind Speed 12 mph ()    
Max Wind Speed 22 mph    
Max Gust Speed 34 mph    
Visibility 19.0 miles    
Events      
T = Trace of Precipitation, MM = Missing Value Source: Averaged Metar Reports

Daily Weather History Graph

Daily Weather History Graph

Search for Another Location

Airport or City:

Trip Planner

Search our weather history database for the weather conditions in past years. The results will help you decide how hot, cold, wet, or windy it might be!

Date:

Astronomy

Nov. 14, 2012 Rise Set
Actual Time 7:00 AM CET 4:36 PM CET
Civil Twilight 6:28 AM CET 5:08 PM CET
Nautical Twilight 5:53 AM CET 5:43 PM CET
Astronomical Twilight 5:18 AM CET 6:18 PM CET
Moon 7:31 AM CET (11/14) 5:05 PM CET (11/14)
Length of Visible Light 10h 39m
Length of Day
9h 35m
New Moon, 0% of the Moon is Illuminated
Nov 14
New Moon
Nov 20
First Quarter
Nov 28
Full
Dec 6
Last Quarter
Dec 13
New

Hourly Weather History & Observations

Time (CET) Temp. Windchill Dew Point Humidity Pressure Visibility Wind Dir Wind Speed Gust Speed Precip Events Conditions
12:00 AM 53.6 °F - 44.6 °F 72% 30.33 in - NE 10.4 mph - N/A   Clear
12:30 AM 53.6 °F - 42.8 °F 67% 30.33 in - NE 10.4 mph - N/A   Clear
1:00 AM 54 °F - 43 °F 57% 30.34 in 19 mi NE 11.2 mph - -  
1:00 AM 53.6 °F - 42.8 °F 67% 30.33 in - NE 11.5 mph - N/A   Clear
1:30 AM 53.6 °F - 42.8 °F 67% 30.33 in - NE 9.2 mph - N/A   Clear
2:00 AM 53.6 °F - 42.8 °F 67% 30.33 in - NE 9.2 mph - N/A   Unknown
2:30 AM 53.6 °F - 44.6 °F 72% 30.30 in - NE 9.2 mph - N/A   Clear
3:00 AM 53.6 °F - 44.6 °F 72% 30.30 in - NE 9.2 mph - N/A   Clear
3:30 AM 51.8 °F - 44.6 °F 76% 30.30 in - NE 9.2 mph - N/A   Clear
4:00 AM 53 °F - 44 °F 64% 30.32 in 19 mi ENE 11.2 mph - -  
4:00 AM 51.8 °F - 44.6 °F 76% 30.30 in - ENE 10.4 mph - N/A   Clear
4:30 AM 53.6 °F - 44.6 °F 72% 30.30 in - NE 9.2 mph - N/A   Clear
5:00 AM 54 °F - 44 °F 60% 30.32 in 19 mi NE 11.2 mph - -  
5:00 AM 53.6 °F - 44.6 °F 72% 30.30 in - NE 11.5 mph - N/A   Clear
5:30 AM 53.6 °F - 42.8 °F 67% 30.30 in - NE 12.7 mph - N/A   Clear
6:00 AM 53 °F - 44 °F 61% 30.31 in 19 mi NE 13.4 mph - -  
6:00 AM 53.6 °F - 44.6 °F 72% 30.30 in - NE 12.7 mph - N/A   Clear
6:30 AM 53.6 °F - 44.6 °F 72% 30.30 in - NE 12.7 mph - N/A   Clear
7:00 AM 53 °F - 44 °F 62% 30.32 in 19 mi NE 13.4 mph - -  
7:00 AM 53.6 °F - 44.6 °F 72% 30.30 in - NE 13.8 mph - N/A   Clear
7:30 AM 53.6 °F - 44.6 °F 72% 30.30 in - NE 12.7 mph - N/A   Clear
8:00 AM 53.6 °F - 42.8 °F 67% 30.30 in - NE 13.8 mph - N/A   Clear
8:30 AM 55.4 °F - 42.8 °F 63% 30.30 in - NE 15.0 mph - N/A   Clear
9:00 AM 55.4 °F - 42.8 °F 63% 30.33 in - ENE 17.3 mph - N/A   Clear
9:30 AM 55.4 °F - 42.8 °F 63% 30.33 in - ENE 18.4 mph - N/A   Clear
10:00 AM 57 °F - 42 °F 46% 30.33 in 19 mi ENE 17.9 mph - -  
10:00 AM 57.2 °F - 42.8 °F 59% 30.30 in - ENE 18.4 mph 31.1 mph N/A   Clear
10:30 AM 57.2 °F - 42.8 °F 59% 30.30 in - ENE 18.4 mph 29.9 mph N/A   Clear
11:00 AM 57.2 °F - 42.8 °F 59% 30.30 in - ENE 19.6 mph - N/A   Clear
11:30 AM 57.2 °F - 42.8 °F 59% 30.30 in - ENE 20.7 mph - N/A   Clear
12:00 PM 57.2 °F - 42.8 °F 59% 30.30 in - ENE 19.6 mph - N/A   Clear
12:30 PM 59.0 °F - 42.8 °F 55% 30.27 in - ENE 18.4 mph - N/A   Clear
1:00 PM 58 °F - 42 °F 45% 30.29 in 19 mi ENE 20.1 mph - -  
1:00 PM 57.2 °F - 42.8 °F 59% 30.27 in - ENE 20.7 mph - N/A   Clear
1:30 PM 57.2 °F - 44.6 °F 63% 30.27 in - ENE 20.7 mph - N/A   Clear
2:00 PM 57.2 °F - 42.8 °F 59% 30.27 in - ENE 20.7 mph 34.5 mph N/A   Clear
2:30 PM 55.4 °F - 42.8 °F 63% 30.24 in - ENE 21.9 mph - N/A   Clear
3:00 PM 55.4 °F - 42.8 °F 63% 30.24 in - ENE 18.4 mph - N/A   Clear
3:30 PM 55.4 °F - 42.8 °F 63% 30.27 in - ENE 17.3 mph - N/A   Clear
4:00 PM 54 °F - 43 °F 56% 30.28 in 19 mi ENE 15.7 mph - -  
4:00 PM 53.6 °F - 42.8 °F 67% 30.27 in - ENE 16.1 mph - N/A   Clear
4:30 PM 53.6 °F - 42.8 °F 67% 30.27 in - ENE 17.3 mph - N/A   Clear
5:00 PM 51.8 °F - 41.0 °F 67% 30.27 in - ENE 16.1 mph - N/A   Clear
5:30 PM 51.8 °F - 41.0 °F 67% 30.27 in - ENE 15.0 mph - N/A   Clear
6:00 PM 51.8 °F - 41.0 °F 67% 30.27 in - ENE 11.5 mph - N/A   Clear
6:30 PM 50.0 °F - 39.2 °F 66% 30.27 in - ENE 10.4 mph - N/A   Clear
7:00 PM 49 °F - 40 °F 61% 30.29 in 19 mi ENE 11.2 mph - -  
7:00 PM 50.0 °F - 39.2 °F 66% 30.27 in - ENE 10.4 mph - N/A   Clear
7:30 PM 50.0 °F - 37.4 °F 62% 30.27 in - ENE 10.4 mph - N/A   Clear
8:00 PM 48.2 °F - 37.4 °F 66% 30.27 in - NE 8.1 mph - N/A   Clear
8:30 PM 48.2 °F - 37.4 °F 66% 30.27 in - NE 6.9 mph - N/A   Clear
9:00 PM 48.2 °F - 39.2 °F 71% 30.27 in - NE 10.4 mph - N/A   Clear
9:30 PM 46.4 °F 41.5 °F 37.4 °F 71% 30.27 in - ENE 10.4 mph - N/A   Clear
10:00 PM 47 °F - 38 °F 60% 30.29 in 19 mi NE 11.2 mph - -  
10:00 PM 48.2 °F - 37.4 °F 66% 30.27 in - NE 10.4 mph - N/A   Clear
10:30 PM 46.4 °F 41.5 °F 37.4 °F 71% 30.27 in - NE 10.4 mph - N/A   Clear
11:00 PM 46.4 °F 41.5 °F 37.4 °F 71% 30.27 in - ENE 10.4 mph - N/A   Clear
11:30 PM 48.2 °F - 37.4 °F 66% 30.24 in - NE 11.5 mph - N/A   Clear